Regional Weather Roundup
Issued by NWS Midland/Odessa, TX

Skip options and go directly to product.
Home | Oldest Version | Previous Version | Current Version | All | Text Only | Save Text | Print | Product List | Glossary On

Skip product version selection by date and time.   
858
ASUS44 KMAF 291410
RWRMAF
MIDLAND AREA WEATHER ROUNDUP
NATIONAL WEATHER SERVICE MIDLAND TX
900 AM CDT WED JUN 29 2016

...IN SOUTHWEST TEXAS AND SOUTHEAST NEW MEXICO...

CITY           SKY/WX    TMP DP  RH WIND       PRES   REMARKS
ALPINE         SUNNY     71  61  71 CALM      30.30R
ANDREWS        FAIR      73  64  73 NE3       30.21R
ARTESIA        SUNNY     75  59  57 CALM      30.22S
BIG SPRING     CLOUDY    70  63  78 CALM      30.19S
CARLSBAD       MOSUNNY   73  64  73 W6        30.18S
DRYDEN           N/A     78  66  66 N7        30.10R
FORT STOCKTON  SUNNY     75  64  68 SE6       30.16S
GUAD PASS      SUNNY     72  59  63 NE8       30.32R
HOBBS          SUNNY     73  64  73 NW5       30.22R
MARFA          SUNNY    N/A N/A N/A N6        30.28R
MIDLAND AIRPK  CLOUDY    75  67  76 NE5       30.19R
MIDLAND INTL   SUNNY     72  67  84 NE5       30.17R
ODESSA         SUNNY     76  65  68 NE3       30.18S
PECOS          SUNNY     76  66  73 E3        30.16R
PRESIDIO       FAIR      77  64  62 CALM      30.14
SEMINOLE       CLOUDY    73  63  71 CALM      30.21S
SNYDER           N/A     71  64  79 CALM      30.18R
WINK           SUNNY     76  67  73 E6        30.15R
$$
...OTHER STATIONS IN TEXAS...

CITY           SKY/WX    TMP DP  RH WIND       PRES   REMARKS
ABILENE        SUNNY     73  69  87 CALM      30.14R
AMARILLO       PTSUNNY   69  55  60 NE22G32   30.26F
AUSTIN         PTSUNNY   77  72  84 CALM      30.04R
BROWNSVILLE    CLOUDY    82  77  84 W7        29.99R
CORPUS CHRISTI CLOUDY    81  77  88 VRB3      29.99R
DALLAS FTW     MOSUNNY   84  71  65 VRB3      30.06R
DEL RIO        SUNNY     78  71  79 NE8       30.04R
EL PASO        MOSUNNY   72  61  68 N13       30.20R
HOUSTON INT    PTSUNNY   81  73  78 N6        30.00S
LUBBOCK        MOSUNNY   74  61  63 CALM      30.21R
SAN ANGELO     SUNNY     76  69  79 CALM      30.14R
SAN ANTONIO    MOSUNNY   80  69  69 NE8       30.06R
WACO           SUNNY     79  71  76 N6        30.05R
WICHITA FALLS  NOT AVBL
$$
...OTHER LOCATIONS IN NEW MEXICO...

CITY           SKY/WX    TMP DP  RH WIND       PRES   REMARKS
ALAMAGORDO     SUNNY     73  54  49 CALM      30.25R
ALBUQUERQUE    MOSUNNY   73  53  49 E3        30.33R
CANNON AFB     SUNNY     72  62  69 W6        30.25R
CLOVIS         SUNNY     72  59  64 SW9       30.24S
HOLLOMAN AFB   SUNNY     76  53  44 N9        30.22R
ROSWELL        SUNNY     76  55  48 W3        30.21S
RUIDOSO          N/A     64  48  55 CALM      30.43S
SANTA FE       SUNNY     68  49  50 N6        30.38S
TRUTH OR CONSE SUNNY     74  56  53 N5        30.27R
TUCUMCARI      SUNNY     76  58  53 SW5       30.20F
$$

USA.gov is the U.S. government's official web portal to all federal, state and local government web resources and services.